Location: Unspecified
(0.0000°N, 0.0000°E)
Time: 04:21:42
(UTC+00:00)

DIAMOND BLUE - Visible Passes

Search period start: 08 June 2023 00:00
Search period end: 18 June 2023 00:00
Orbit: 437 x 451 km, 97.2° (Epoch: 07 June)

Date Brightness Start Highest point End Pass type
(mag) Time Alt. Az. Time Alt. Az. Time Alt. Az.
08 Jun ? 19:52:25 20° N 19:52:25 20° N 19:53:34 10° N visible
09 Jun ? 19:15:17 13° NE 19:15:17 13° NE 19:15:52 10° NE visible
10 Jun ? 20:11:37 16° NW 20:11:37 16° NW 20:12:24 10° NNW visible
11 Jun ? 19:34:23 19° NNE 19:34:23 19° NNE 19:35:36 10° N visible
13 Jun ? 19:53:18 21° N 19:53:18 21° N 19:54:33 10° N visible
14 Jun ? 19:15:56 14° NE 19:15:56 14° NE 19:16:41 10° NE visible
15 Jun ? 20:12:01 16° NW 20:12:01 16° NW 20:12:52 10° NNW visible
16 Jun ? 19:34:33 21° NNE 19:34:33 21° NNE 19:35:52 10° N visible
